Location: Unspecified
(0.0000°N, 0.0000°E)
Time: 06:41:52
(UTC+00:00)

Vanguard 1 - Pass Details

Date: 11 December 2017
Orbit: 650 x 3833 km, 34.3° (Epoch: 22 June)

Event Time Altitude Azimuth Distance (km) Brightness Sun altitude
Rises 05:15:01 0° 226° (SW) 6,651 14.1 -8.8°
Reaches altitude 10° 05:18:57 10° 223° (SW) 5,959 13.8 -7.9°
Maximum altitude 05:39:49 69° 142° (SE) 3,982 13.4 -3.1°
Drops below altitude 10° 06:02:17 10° 62° (ENE) 6,385 14.8 2.1°
Sets 06:06:37 0° 60° (ENE) 7,125 15.0 3.1°
